Location: Peterborough
(44.3091°N, 78.3197°W)
Time: 09:27:21
(UTC-04:00)

A-11 Canister half - Pass Details

Date: 21 September 2024
Orbit: 1515 x 1684 km, 47.2° (Epoch: 02 October)

Event Time Altitude Azimuth Distance (km) Brightness Sun altitude
Rises 20:05:58 0° 263° (W) 4,746 13.2 -10.5°
Reaches altitude 10° 20:09:05 10° 265° (W) 3,742 12.4 -11.1°
Maximum altitude 20:18:32 77° 351° (N) 1,562 9.1 -12.7°
Enters shadow 20:27:01 13° 78° (ENE) 3,420 10.3 -14.2°
